• In Moldova, Republic
  • List of Countries
  • For 7 days
  • Water Temperature
  • Satellite Maps
  • Weather Map
  • Weather Widgets
  • user-avatar
    Login

    Hourly Weather Eisenstadt

    Today, 24 September, Sunday

    Time Temperature Precipitation Wind Pressure Humidity
    00:00 +10°C° 0 mm 1 mps 725 mmHg 92%
    01:00 +11°C° 0 mm 1 mps 725 mmHg 92%
    02:00 +11°C° 0 mm 1 mps 725 mmHg 92%
    03:00 +11°C° 0 mm 1 mps 725 mmHg 91%
    04:00 +11°C° 0 mm 1 mps 725 mmHg 91%
    05:00 +11°C° 0 mm 1 mps 725 mmHg 90%
    06:00 +11°C° 0 mm 1 mps 725 mmHg 89%
    07:00 +12°C° 0 mm 1 mps 725 mmHg 85%
    08:00 +13°C° 0 mm 1 mps 725 mmHg 80%
    09:00 +14°C° 0 mm 1 mps 725 mmHg 74%
    10:00 +16°C° 0 mm 1 mps 726 mmHg 69%
    11:00 +16°C° 0.2 mm 1 mps 726 mmHg 67%
    12:00 +17°C° 0.2 mm 2 mps 726 mmHg 65%
    13:00 +17°C° 0.2 mm 2 mps 725 mmHg 64%
    14:00 +17°C° 0.2 mm 2 mps 725 mmHg 65%
    15:00 +17°C° 0.2 mm 2 mps 725 mmHg 65%
    16:00 +18°C° 0.2 mm 1 mps 725 mmHg 66%
    17:00 +15°C° 0.1 mm 1 mps 725 mmHg 72%
    18:00 +14°C° 0.1 mm 1 mps 725 mmHg 77%
    19:00 +11°C° 0.1 mm 0 mps 725 mmHg 83%
    20:00 +12°C° 0 mm 1 mps 725 mmHg 84%
    21:00 +12°C° 0 mm 1 mps 725 mmHg 85%
    22:00 +11°C° 0 mm 1 mps 726 mmHg 87%
    23:00 +11°C° 0 mm 1 mps 726 mmHg 88%

    Tomorrow, 25 September, Monday

    Time Temperature Precipitation Wind Pressure Humidity
    00:00 +11°C° 0 mm 1 mps 726 mmHg 89%
    01:00 +10°C° 0 mm 1 mps 726 mmHg 89%
    02:00 +10°C° 0 mm 1 mps 725 mmHg 90%
    03:00 +10°C° 0 mm 1 mps 725 mmHg 91%
    04:00 +10°C° 0 mm 1 mps 725 mmHg 91%
    05:00 +10°C° 0 mm 1 mps 725 mmHg 90%
    06:00 +10°C° 0 mm 0 mps 726 mmHg 89%
    07:00 +10°C° 0 mm 0 mps 726 mmHg 88%
    08:00 +13°C° 0 mm 1 mps 726 mmHg 83%
    09:00 +14°C° 0 mm 1 mps 726 mmHg 78%
    10:00 +15°C° 0 mm 1 mps 726 mmHg 73%
    11:00 +16°C° 0.1 mm 1 mps 726 mmHg 70%
    12:00 +17°C° 0.1 mm 2 mps 726 mmHg 67%
    13:00 +17°C° 0.1 mm 2 mps 726 mmHg 65%
    14:00 +17°C° 0.1 mm 2 mps 726 mmHg 65%
    15:00 +17°C° 0.1 mm 2 mps 726 mmHg 66%
    16:00 +17°C° 0.1 mm 2 mps 726 mmHg 67%
    17:00 +16°C° 0 mm 2 mps 726 mmHg 72%
    18:00 +14°C° 0 mm 2 mps 726 mmHg 76%
    19:00 +13°C° 0 mm 1 mps 726 mmHg 81%
    20:00 +12°C° 0 mm 1 mps 726 mmHg 82%
    21:00 +12°C° 0 mm 1 mps 727 mmHg 83%
    22:00 +11°C° 0 mm 1 mps 727 mmHg 85%
    23:00 +11°C° 0 mm 1 mps 727 mmHg 85%

    Day after tomorrow, 26 September, Tuesday

    Time Temperature Precipitation Wind Pressure Humidity
    00:00 +11°C° 0 mm 1 mps 727 mmHg 85%
    01:00 +11°C° 0 mm 1 mps 727 mmHg 86%
    02:00 +11°C° 0 mm 1 mps 727 mmHg 86%
    03:00 +10°C° 0 mm 1 mps 727 mmHg 86%
    04:00 +10°C° 0 mm 1 mps 727 mmHg 87%
    05:00 +11°C° 0 mm 1 mps 727 mmHg 86%
    06:00 +11°C° 0 mm 1 mps 727 mmHg 85%
    07:00 +12°C° 0 mm 1 mps 727 mmHg 84%
    08:00 +13°C° 0.1 mm 1 mps 727 mmHg 82%
    09:00 +14°C° 0.1 mm 1 mps 728 mmHg 79%
    10:00 +15°C° 0.1 mm 1 mps 728 mmHg 76%
    11:00 +16°C° 0.1 mm 1 mps 728 mmHg 73%
    12:00 +17°C° 0.1 mm 2 mps 728 mmHg 71%
    13:00 +17°C° 0.1 mm 2 mps 728 mmHg 68%
    14:00 +18°C° 0.1 mm 2 mps 728 mmHg 67%
    15:00 +19°C° 0.1 mm 1 mps 728 mmHg 67%
    16:00 +19°C° 0.1 mm 1 mps 727 mmHg 66%
    17:00 +18°C° 0.1 mm 1 mps 728 mmHg 71%
    18:00 +15°C° 0.1 mm 1 mps 728 mmHg 77%
    19:00 +14°C° 0.1 mm 1 mps 728 mmHg 82%
    20:00 +13°C° 0 mm 1 mps 728 mmHg 83%
    21:00 +13°C° 0 mm 1 mps 728 mmHg 83%
    22:00 +13°C° 0 mm 1 mps 728 mmHg 84%
    23:00 +12°C° 0 mm 1 mps 728 mmHg 85%

    27 September, Wednesday

    Time Temperature Precipitation Wind Pressure Humidity
    00:00 +12°C° 0 mm 1 mps 728 mmHg 86%
    01:00 +12°C° 0 mm 1 mps 728 mmHg 87%
    02:00 +12°C° 0 mm 1 mps 728 mmHg 88%
    03:00 +11°C° 0 mm 1 mps 728 mmHg 89%
    04:00 +11°C° 0 mm 1 mps 728 mmHg 89%
    05:00 +12°C° 0 mm 1 mps 729 mmHg 88%
    06:00 +12°C° 0 mm 1 mps 729 mmHg 87%
    07:00 +13°C° 0 mm 1 mps 729 mmHg 86%
    08:00 +15°C° 0 mm 1 mps 729 mmHg 79%
    09:00 +16°C° 0 mm 1 mps 730 mmHg 72%
    10:00 +19°C° 0 mm 1 mps 730 mmHg 65%
    11:00 +20°C° 0.2 mm 1 mps 730 mmHg 66%
    12:00 +19°C° 0.2 mm 2 mps 730 mmHg 66%
    13:00 +19°C° 0.2 mm 2 mps 730 mmHg 66%
    14:00 +19°C° 0.2 mm 2 mps 730 mmHg 67%
    15:00 +19°C° 0.2 mm 2 mps 729 mmHg 69%
    16:00 +19°C° 0.2 mm 1 mps 729 mmHg 70%
    17:00 +18°C° 0.3 mm 1 mps 729 mmHg 75%
    18:00 +16°C° 0.3 mm 1 mps 730 mmHg 79%
    19:00 +15°C° 0.3 mm 1 mps 730 mmHg 84%
    20:00 +14°C° 0.1 mm 1 mps 730 mmHg 85%
    21:00 +14°C° 0.1 mm 1 mps 730 mmHg 85%
    22:00 +13°C° 0.1 mm 1 mps 730 mmHg 86%
    23:00 +13°C° 0 mm 1 mps 730 mmHg 87%

    28 September, Thursday

    Time Temperature Precipitation Wind Pressure Humidity
    00:00 +12°C° 0 mm 1 mps 730 mmHg 87%
    01:00 +12°C° 0 mm 1 mps 730 mmHg 87%
    02:00 +12°C° 0 mm 1 mps 730 mmHg 86%
    03:00 +12°C° 0 mm 1 mps 730 mmHg 85%
    04:00 +12°C° 0 mm 1 mps 730 mmHg 85%
    05:00 +12°C° 0 mm 1 mps 730 mmHg 83%
    06:00 +12°C° 0 mm 1 mps 730 mmHg 82%
    07:00 +12°C° 0 mm 1 mps 730 mmHg 80%
    08:00 +14°C° 0 mm 1 mps 730 mmHg 72%
    09:00 +16°C° 0 mm 1 mps 731 mmHg 64%
    10:00 +18°C° 0 mm 2 mps 731 mmHg 56%
    11:00 +18°C° 0 mm 2 mps 731 mmHg 53%
    12:00 +19°C° 0 mm 2 mps 730 mmHg 49%
    13:00 +20°C° 0 mm 2 mps 730 mmHg 46%
    14:00 +20°C° 0 mm 2 mps 730 mmHg 48%
    15:00 +19°C° 0 mm 2 mps 730 mmHg 49%
    16:00 +19°C° 0 mm 2 mps 730 mmHg 51%
    17:00 +18°C° 0 mm 1 mps 730 mmHg 57%
    18:00 +15°C° 0 mm 1 mps 730 mmHg 62%
    19:00 +14°C° 0 mm 1 mps 730 mmHg 67%
    20:00 +13°C° 0 mm 1 mps 730 mmHg 69%
    21:00 +12°C° 0 mm 1 mps 730 mmHg 71%
    22:00 +12°C° 0 mm 1 mps 730 mmHg 72%
    23:00 +12°C° 0 mm 1 mps 730 mmHg 73%

    29 September, Friday

    Time Temperature Precipitation Wind Pressure Humidity
    00:00 +11°C° 0 mm 1 mps 730 mmHg 74%
    01:00 +11°C° 0 mm 1 mps 730 mmHg 75%
    02:00 +10°C° 0 mm 1 mps 730 mmHg 76%
    03:00 +10°C° 0 mm 1 mps 730 mmHg 77%
    04:00 +10°C° 0 mm 1 mps 730 mmHg 77%
    05:00 +10°C° 0 mm 1 mps 730 mmHg 77%
    06:00 +10°C° 0 mm 1 mps 730 mmHg 77%
    07:00 +11°C° 0 mm 1 mps 730 mmHg 76%
    08:00 +13°C° 0 mm 1 mps 730 mmHg 69%
    09:00 +14°C° 0 mm 1 mps 730 mmHg 62%
    10:00 +16°C° 0 mm 2 mps 730 mmHg 54%
    11:00 +17°C° 0 mm 2 mps 730 mmHg 52%
    12:00 +18°C° 0 mm 2 mps 729 mmHg 49%
    13:00 +18°C° 0 mm 3 mps 729 mmHg 46%
    14:00 +18°C° 0 mm 2 mps 729 mmHg 48%
    15:00 +18°C° 0 mm 2 mps 728 mmHg 49%
    16:00 +17°C° 0 mm 2 mps 728 mmHg 50%
    17:00 +15°C° 0 mm 2 mps 728 mmHg 56%
    18:00 +14°C° 0 mm 1 mps 728 mmHg 62%
    19:00 +12°C° 0 mm 1 mps 728 mmHg 68%
    20:00 +11°C° 0 mm 1 mps 728 mmHg 69%
    21:00 +11°C° 0 mm 1 mps 728 mmHg 70%
    22:00 +11°C° 0 mm 1 mps 728 mmHg 71%
    23:00 +10°C° 0 mm 1 mps 728 mmHg 72%
    Show more